AAL1441 KTRI-KCLT

Flight info

Callsign AAL1441
Flight time 0h 23m
Altitude 19000
Route WILUM PARQR4
Aircraft A319/M-VGDW/C

Departure

Time 2026-05-06 16:22
Airport Tri-Cities Regional TN/VA Airport (KTRI)

Arrival

Time 2026-05-06 16:46
Airport Charlotte Douglas International Airport (KCLT)
Time Latitude Longitude Altitude Speed Heading
2026-05-06 16:15 36.48069 -82.40620 1518 ft 0 kts 327°
2026-05-06 16:17 36.48066 -82.40618 1517 ft 4 kts 327°
2026-05-06 16:18 36.48042 -82.40598 1515 ft 4 kts 329°
2026-05-06 16:18 36.48017 -82.40593 1516 ft 0 kts 14°
2026-05-06 16:19 36.48022 -82.40586 1515 ft 3 kts 55°
2026-05-06 16:20 36.48043 -82.40547 1514 ft 8 kts 49°
2026-05-06 16:20 36.48091 -82.40489 1517 ft 12 kts 43°
2026-05-06 16:20 36.48176 -82.40395 1517 ft 21 kts 43°
2026-05-06 16:20 36.48230 -82.40238 1517 ft 21 kts 88°
2026-05-06 16:21 36.48156 -82.40101 1517 ft 12 kts 143°
2026-05-06 16:21 36.48079 -82.40155 1517 ft 22 kts 223°
2026-05-06 16:21 36.47810 -82.40464 1515 ft 82 kts 222°
2026-05-06 16:21 36.47260 -82.41088 1518 ft 134 kts 223°
2026-05-06 16:22 36.46500 -82.41955 1892 ft 152 kts 222°
2026-05-06 16:22 36.45675 -82.42808 2575 ft 156 kts 207°
2026-05-06 16:22 36.44575 -82.42840 3061 ft 174 kts 157°
2026-05-06 16:22 36.43790 -82.41630 3565 ft 197 kts 108°
2026-05-06 16:23 36.43704 -82.39821 3974 ft 223 kts 94°
2026-05-06 16:23 36.43687 -82.37800 4365 ft 243 kts 92°
2026-05-06 16:23 36.43672 -82.35581 4802 ft 269 kts 93°
2026-05-06 16:23 36.43665 -82.33153 5374 ft 291 kts 91°
2026-05-06 16:24 36.43667 -82.30581 6166 ft 305 kts 91°
2026-05-06 16:24 36.43676 -82.27913 6880 ft 318 kts 91°
2026-05-06 16:24 36.43688 -82.25106 7758 ft 324 kts 90°
2026-05-06 16:24 36.43701 -82.22324 8673 ft 328 kts 90°
2026-05-06 16:25 36.43715 -82.19436 9589 ft 333 kts 90°
2026-05-06 16:25 36.43724 -82.16561 10338 ft 341 kts 89°
2026-05-06 16:25 36.43730 -82.13560 11021 ft 351 kts 90°
2026-05-06 16:25 36.43735 -82.10508 11695 ft 362 kts 90°
2026-05-06 16:26 36.43742 -82.07294 11976 ft 383 kts 90°
2026-05-06 16:26 36.43749 -82.03938 12494 ft 393 kts 90°
2026-05-06 16:26 36.43756 -82.00508 13202 ft 399 kts 90°
2026-05-06 16:26 36.43763 -81.97052 13956 ft 403 kts 90°
2026-05-06 16:27 36.43767 -81.93558 14647 ft 406 kts 90°
2026-05-06 16:27 36.43707 -81.90031 15291 ft 410 kts 96°
2026-05-06 16:27 36.43169 -81.86544 15917 ft 412 kts 109°
2026-05-06 16:27 36.42090 -81.83244 16532 ft 413 kts 121°
2026-05-06 16:28 36.40591 -81.80222 16826 ft 409 kts 132°
2026-05-06 16:28 36.38635 -81.77684 16898 ft 411 kts 147°
2026-05-06 16:28 36.36220 -81.75782 16914 ft 412 kts 158°
2026-05-06 16:28 36.33715 -81.74127 16912 ft 414 kts 158°
2026-05-06 16:29 36.31171 -81.72445 16905 ft 416 kts 158°
2026-05-06 16:29 36.28619 -81.70746 16896 ft 416 kts 157°
2026-05-06 16:29 36.26081 -81.69044 16911 ft 416 kts 157°
2026-05-06 16:29 36.23529 -81.67326 16909 ft 417 kts 157°
2026-05-06 16:30 36.20975 -81.65602 16879 ft 418 kts 157°
2026-05-06 16:30 36.19249 -81.64436 16897 ft 421 kts 156°
2026-05-06 16:30 36.15815 -81.62117 16911 ft 425 kts 156°
2026-05-06 16:30 36.13217 -81.60360 16912 ft 426 kts 156°
2026-05-06 16:31 36.10615 -81.58605 16915 ft 426 kts 156°
2026-05-06 16:31 36.08009 -81.56851 16913 ft 426 kts 156°
2026-05-06 16:31 36.05403 -81.55100 16916 ft 426 kts 156°
2026-05-06 16:31 36.02791 -81.53352 16917 ft 427 kts 156°
2026-05-06 16:32 36.00182 -81.51608 16909 ft 422 kts 156°
2026-05-06 16:32 35.97652 -81.49910 16911 ft 407 kts 156°
2026-05-06 16:32 35.95190 -81.48256 16891 ft 397 kts 156°
2026-05-06 16:32 35.92785 -81.46640 16188 ft 391 kts 156°
2026-05-06 16:33 35.90404 -81.45048 15302 ft 387 kts 157°
2026-05-06 16:33 35.88053 -81.43480 14458 ft 382 kts 157°
2026-05-06 16:33 35.85727 -81.41932 13736 ft 377 kts 158°
2026-05-06 16:34 35.81213 -81.38924 12160 ft 363 kts 158°
2026-05-06 16:34 35.79047 -81.37471 12010 ft 338 kts 158°
2026-05-06 16:34 35.77068 -81.36127 11673 ft 324 kts 158°
2026-05-06 16:34 35.75119 -81.34772 11199 ft 321 kts 158°
2026-05-06 16:35 35.73194 -81.33413 10929 ft 316 kts 158°
2026-05-06 16:35 35.71316 -81.32067 10743 ft 309 kts 158°
2026-05-06 16:35 35.69485 -81.30721 10466 ft 308 kts 154°
2026-05-06 16:35 35.67906 -81.28901 10228 ft 312 kts 139°
2026-05-06 16:36 35.66460 -81.26926 9938 ft 310 kts 139°
2026-05-06 16:36 35.65030 -81.24960 9567 ft 307 kts 139°
2026-05-06 16:36 35.63612 -81.23008 9107 ft 304 kts 140°
2026-05-06 16:36 35.62205 -81.21072 8693 ft 302 kts 139°
2026-05-06 16:37 35.60810 -81.19157 8315 ft 300 kts 139°
2026-05-06 16:37 35.59421 -81.17252 7922 ft 297 kts 139°
2026-05-06 16:37 35.58070 -81.15402 7459 ft 294 kts 140°
2026-05-06 16:37 35.56710 -81.13542 6995 ft 291 kts 139°
2026-05-06 16:38 35.55364 -81.11700 6553 ft 288 kts 139°
2026-05-06 16:38 35.54034 -81.09878 6060 ft 285 kts 139°
2026-05-06 16:38 35.52720 -81.08078 5597 ft 281 kts 139°
2026-05-06 16:38 35.51431 -81.06312 5241 ft 272 kts 139°
2026-05-06 16:39 35.50212 -81.04634 5118 ft 254 kts 139°
2026-05-06 16:39 35.49078 -81.03074 5006 ft 236 kts 140°
2026-05-06 16:39 35.48027 -81.01632 4998 ft 221 kts 140°
2026-05-06 16:39 35.47003 -81.00242 4991 ft 219 kts 140°
2026-05-06 16:40 35.46013 -80.98915 5010 ft 200 kts 144°
2026-05-06 16:40 35.44949 -80.97922 4994 ft 185 kts 160°
2026-05-06 16:40 35.43796 -80.97328 4886 ft 177 kts 175°
2026-05-06 16:40 35.42617 -80.97094 4601 ft 171 kts 181°
2026-05-06 16:41 35.41452 -80.96953 4350 ft 166 kts 183°
2026-05-06 16:41 35.40304 -80.96841 4126 ft 165 kts 186°
2026-05-06 16:41 35.39161 -80.96736 3917 ft 163 kts 186°
2026-05-06 16:41 35.38036 -80.96637 3708 ft 161 kts 186°
2026-05-06 16:42 35.36918 -80.96540 3501 ft 160 kts 186°
2026-05-06 16:42 35.35810 -80.96444 3298 ft 159 kts 186°
2026-05-06 16:42 35.34714 -80.96349 3089 ft 158 kts 186°
2026-05-06 16:42 35.33613 -80.96255 2882 ft 160 kts 186°
2026-05-06 16:43 35.32500 -80.96159 2675 ft 161 kts 186°
2026-05-06 16:43 35.31397 -80.96062 2470 ft 153 kts 186°
2026-05-06 16:43 35.30392 -80.95971 2290 ft 136 kts 186°
2026-05-06 16:43 35.29486 -80.95892 2100 ft 128 kts 184°
2026-05-06 16:44 35.28605 -80.95816 1938 ft 129 kts 182°
2026-05-06 16:44 35.27720 -80.95739 1754 ft 128 kts 181°
2026-05-06 16:44 35.26821 -80.95661 1625 ft 131 kts 180°
2026-05-06 16:44 35.25889 -80.95589 1400 ft 137 kts 180°
2026-05-06 16:45 35.24940 -80.95510 1205 ft 140 kts 183°
2026-05-06 16:45 35.23973 -80.95422 1016 ft 138 kts 183°
2026-05-06 16:45 35.23003 -80.95341 826 ft 141 kts 182°
2026-05-06 16:45 35.22068 -80.95263 743 ft 123 kts 176°
2026-05-06 16:46 35.21490 -80.95208 738 ft 34 kts 175°
2026-05-06 16:46 35.21371 -80.95122 736 ft 19 kts 81°
2026-05-06 16:46 35.21389 -80.94945 732 ft 22 kts 57°
2026-05-06 16:46 35.21536 -80.94901 733 ft 23 kts 40°
2026-05-06 16:47 35.21614 -80.94755 732 ft 22 kts 36°
2026-05-06 16:47 35.21740 -80.94644 732 ft 21 kts 59°
2026-05-06 16:47 35.21764 -80.94592 731 ft 0 kts 58°